Regional Weather Roundup
Issued by NWS Columbia, SC

Home | Current Version | Previous Version | Text Only | Print | Product List | Glossary On
Versions: 1 2 3 4 5 6 7 8 9 10 11 12 13 14 15 16 17 18 19 20 21 22 23 24 25 26 27 28 29 30 31 32 33 34 35 36 37 38 39 40 41 42 43 44 45 46 47 48 49 50
000
ASUS42 KCAE 052010
RWRCAE
REGIONAL WEATHER ROUNDUP
NATIONAL WEATHER SERVICE COLUMBIA SC
400 PM EDT THU MAY 05 2016

NOTE: "FAIR" INDICATES FEW OR NO CLOUDS BELOW 12,000 FEET WITH NO
SIGNIFICANT WEATHER AND/OR OBSTRUCTIONS TO VISIBILITY.

NOT ALL STATIONS ARE QUALITY CONTROLLED BY THE NATIONAL
WEATHER SERVICE. USE DATA WITH CAUTION...ESPECIALLY
DEWPOINT OBSERVATIONS.

SCZ001>056-GAZ040-063>065-077-052100-
...UPSTATE SOUTH CAROLINA...

CITY           SKY/WX    TMP DP  RH WIND       PRES   REMARKS
ANDERSON       PTSUNNY   62  36  37 NW15G22   29.68F
LIBERTY        PTCLDY    63  38  40 NW12G23   29.68F
SPARTANBURG    MOSUNNY   64  32  29 NW16G24   29.65S
CLEMSON        SUNNY     64  36  35 NW14G23   29.71S
GREENVILLE     LGT RAIN  54  43  66 W8        29.69R
GREENWOOD      CLOUDY    64  40  41 NW10      29.69S
GREER          PTSUNNY   60  36  40 NW12G23   29.67R
ROCK HILL      CLOUDY    64  45  49 CALM      29.62F
CHESTER        LGT RAIN  59  36  41 NW12G17   29.65S
LAURENS        CLOUDY    59  43  55 NW12G20   29.67F


...CENTRAL SOUTH CAROLINA...

CITY           SKY/WX    TMP DP  RH WIND       PRES   REMARKS
COLUMBIA APT   PTSUNNY   63  48  58 W9        29.64S
COLUMBIA OWENS PTSUNNY   64  40  41 W13G20    29.65R
MCENTIRE ANGB  LGT RAIN  64  40  40 W21G28    29.64R
ORANGEBURG     PTSUNNY   66  43  43 NW17G24   29.64S
SUMTER SHAW    TSTM      64  41  42 W12       29.59S
NEWBERRY       RAIN      54  41  62 W12G22    29.69S
AIKEN          CLOUDY    63  36  36 W14G24    29.69F
BARNWELL       MOCLDY    70  43  37 NW12G20   29.66S
MANNING        FAIR      66  39  37 NW13G25   29.61R
CAMDEN           N/A    N/A N/A N/A MISG        N/A
LANCASTER      CLOUDY    54  45  71 SW6G16    29.65R HAZE
WINNSBORO      PTCLDY    64  37  36 W10G21    29.63S


...EASTERN AND COASTAL SOUTH CAROLINA...

CITY           SKY/WX    TMP DP  RH WIND       PRES   REMARKS
MYRTLE BEACH   MOSUNNY   70  48  46 NW14G23   29.57F
N MYRTLE BCH   MOSUNNY   69  50  50 NW9G24    29.55R
CONWAY         MOCLDY    63  50  63 NW9       29.58R
MARION         CLOUDY    55  45  67 W17G29    29.61R
HARTSVILLE     FAIR      59  45  58 N12       29.61S
FLORENCE       LGT RAIN  59  53  80 NW9       29.62S
DARLINGTON     LGT RAIN  59  50  72 NW14      29.62R
CHARLESTON APT MOSUNNY   74  41  30 W16G24    29.60F
MOUNT PLEASANT FAIR      72  43  35 NW16G24   29.60S
WALTERBORO     PTCLDY    72  34  25 W15G26    29.64S
BEAUFORT       PTSUNNY   70  40  33 NW14G26   29.64F


...EASTERN GEORGIA...

CITY           SKY/WX    TMP DP  RH WIND       PRES   REMARKS
AUGUSTA BUSH F PTSUNNY   67  38  34 NW22G30   29.67S
AUGUSTA DANIEL MOSUNNY   67  38  34 W10G22    29.69R
WASHINGTON     FAIR      61  36  39 NW15G28   29.69F
CLAXTON        FAIR      70  44  38 W22G29    29.70S
SAVANNAH       PTSUNNY   73  37  27 W20G30    29.66S


...SOUTHERN NORTH CAROLINA...

CITY           SKY/WX    TMP DP  RH WIND       PRES   REMARKS
CHARLOTTE      PTSUNNY   63  36  36 N13       29.62F
MONROE         MOSUNNY   61  44  53 N8        29.62F
WADESBORO      MOCLDY    61  38  42 NW17G24   29.62S
ROCKINGHAM     MOCLDY    60  46  61 NW15G25   29.62R
RUTHERFORDTON  MOSUNNY   63  32  31 N14       29.65F
ASHEVILLE      LGT RAIN  54  37  52 NW18G26   29.71S

$$



USA.gov is the U.S. government's official web portal to all federal, state and local government web resources and services.